Tracking 19846 objects as of 20-Sep-2019
HD Live streaming from Space Station
objects crossing your sky now

ASAP-S

Track ASAP-S now!
10-day predictions
ASAP-S is classified as:


NORAD ID: 38013
Int'l Code: 2011-076G
Perigee: 579.1 km
Apogee: 591.2 km
Inclination: 98.1 °
Period: 96.2 minutes
Semi major axis: 6956 km
RCS: 2.764 m2 (large)
Launch date: December 17, 2011
Source: France (FR)
Launch site: FRENCH GUIANA (FRGUI)
aabbcc
Your satellite tracking list
Your tracking list is empty




NASA's NSSDC Master Catalog

Two Line Element Set (TLE):
1 38013U 11076G   19262.03002128  .00000562  00000-0  55028-4 0  9993
2 38013  98.0542  46.8583 0008653 159.3902 200.7669 14.96408936422772
Source of the keplerian elements: AFSPC